Temperature
17 17 16 16 16 16 16 16 15 15 15 15 15 15 15 15 14 14 14 14 14 14 14 14 14 14 14 14 14 13 13 13 13 14 14 14 14 14 14 14 15 15 15
17 16 16 16 16 16 16 15 15 15 15 15 15 15 15 14 14 14 14 14 14 14 14 14 14 14 14 14 13 13 13 13 13 13 14 14 14 14 14 14 14 14 14
16 16 16 16 16 15 15 15 15 15 15 14 14 14 14 14 14 14 14 14 14 14 14 14 14 14 14 14 13 13 13 13 13 13 13 13 14 14 14 14 14 14 14
16 16 16 15 15 15 15 14 14 14 14 14 14 14 14 14 14 14 14 14 14 13 13 13 13 13 13 13 13 13 13 13 13 13 13 13 13 13 13 13 13 13 14
16 15 15 15 14 14 14 14 14 14 14 14 13 14 13 13 13 13 13 13 13 13 13 13 13 13 13 13 13 13 13 13 13 13 13 13 13 13 13 13 13 13 13
15 15 15 14 14 14 14 13 13 13 13 13 13 13 13 13 13 13 13 13 13 13 13 13 13 13 13 13 13 13 13 13 13 13 13 13 13 13 13 13 13 13 13
15 15 14 14 14 14 13 13 13 13 13 13 13 12 12 12 12 12 12 12 12 12 12 12 12 12 12 13 13 13 13 12 12 12 13 13 13 13 13 13 13 13 13
14 14 14 14 13 13 13 13 13 12 12 12 12 12 12 12 12 12 12 12 12 12 12 12 12 12 12 12 12 12 12 13 12 12 12 13 13 13 13 13 13 13 13
14 14 13 13 13 13 12 12 12 12 12 12 11 11 11 11 11 11 11 11 11 11 11 11 11 11 11 11 11 11 12 12 12 12 12 12 13 13 13 12 12 12 12
13 13 13 12 12 12 12 12 11 11 11 11 11 11 11 11 10 10 10 10 10 11 11 11 11 11 11 11 10 11 11 11 12 12 12 12 12 12 12 12 12 12 12
13 12 12 12 12 11 11 11 11 11 11 11 10 10 10 10 10 10 10 9 10 10 10 10 10 10 10 10 10 10 10 10 11 11 11 12 12 12 12 12 12 12 12
12 12 12 11 11 11 11 11 10 10 10 10 10 10 9 9 9 9 9 9 9 9 9 9 9 10 10 10 10 10 10 10 10 10 10 11 11 11 12 12 12 12 12
12 12 11 11 11 10 10 10 10 10 9 9 9 9 9 9 9 8 8 8 8 8 9 9 9 9 9 9 9 10 10 9 10 10 10 10 11 11 11 11 12 12 12
11 11 11 11 10 10 10 10 9 9 9 9 9 8 8 8 8 8 8 8 8 8 8 8 8 9 9 9 9 9 9 9 9 9 10 10 10 10 11 11 11 11 11
11 11 11 10 10 10 10 9 9 9 8 8 8 8 8 8 8 7 7 7 7 7 7 7 8 8 8 8 8 8 8 8 8 9 9 9 9 10 10 11 11 11 11
11 10 10 10 10 9 9 9 9 8 8 8 8 7 7 7 7 7 7 7 7 7 7 7 7 7 7 7 7 7 7 7 7 8 8 8 9 9 9 10 10 10 10
10 10 10 10 9 9 9 8 8 8 8 8 7 7 7 7 7 6 6 6 6 6 6 6 6 6 6 6 6 6 6 7 7 7 7 8 8 8 8 9 9 9 10
10 10 10 9 9 9 8 8 8 7 7 7 7 7 7 6 6 6 6 6 6 6 6 6 6 5 5 5 5 6 6 6 6 6 7 7 7 8 8 8 9 9 9
10 10 9 9 8 8 8 8 7 7 7 7 7 7 6 6 6 6 6 5 5 5 5 5 5 5 5 5 5 5 5 5 6 6 6 6 7 7 8 8 8 9 9
9 9 9 8 8 8 8 7 7 7 6 6 6 6 6 6 6 5 5 5 5 5 5 4 4 4 4 4 4 4 5 5 5 5 6 6 6 7 7 7 8 8 8
9 9 8 8 8 7 7 7 7 6 6 6 6 6 5 5 5 5 5 4 4 4 4 4 4 4 4 4 4 4 4 4 4 5 5 5 6 6 7 7 7 8 8
9 8 8 8 7 7 7 7 6 6 6 6 5 5 5 5 5 4 4 4 4 4 3 3 3 3 3 3 3 3 4 4 4 4 4 5 5 5 6 6 7 7 7
8 8 8 7 7 7 6 6 6 6 5 5 5 5 5 5 4 4 4 4 4 3 3 3 3 3 3 3 3 3 3 3 4 4 4 4 5 5 5 6 6 6 7
8 8 7 7 7 6 6 6 6 5 5 5 5 5 4 4 4 4 4 3 3 3 3 3 3 3 3 3 3 3 3 3 3 4 4 4 4 5 5 5 6 6 7
8 7 7 7 6 6 6 5 5 5 5 5 4 4 4 4 4 4 3 3 3 3 2 2 2 2 2 2 2 2 3 3 3 3 3 4 4 4 5 5 5 6 6
7 7 6 6 6 6 5 5 5 5 4 4 4 4 4 4 3 3 3 3 2 2 2 2 2 2 2 2 2 2 3 3 3 3 3 4 4 4 5 5 5 6 6
Wind_Speed
3 3 3 2 2 2 2 3 3 3 3 3 3 2 2 2 2 2 3 2 2 3 3 2 3 2 2 2 1 1 2 3 3 3 2 2 2 2 1 2 3 3 4
3 4 3 3 3 3 3 3 4 4 3 3 3 3 3 3 2 2 3 3 3 4 4 3 4 3 3 3 2 2 2 3 4 4 3 2 3 3 2 2 2 3 4
4 4 4 3 3 3 3 4 4 4 4 4 3 3 3 3 2 2 2 3 3 4 4 4 5 4 4 4 4 3 3 3 3 3 3 2 2 2 1 2 2 2 3
5 5 4 3 3 3 3 4 4 4 4 4 4 4 4 3 3 3 3 2 3 4 4 4 5 4 5 5 4 4 4 3 3 3 3 3 3 2 1 2 2 2 2
6 5 3 3 3 4 4 4 4 4 5 4 5 5 5 4 4 5 3 3 3 4 4 4 5 6 7 5 4 4 3 3 3 3 4 3 3 2 3 3 3 2 2
5 4 3 3 4 4 4 4 5 5 5 5 5 5 6 6 9 8 6 3 3 3 4 5 6 6 8 8 9 7 6 4 5 4 4 5 6 5 4 4 3 2 3
4 3 3 3 4 4 4 5 5 5 4 5 5 5 5 7 10 10 9 4 3 4 4 5 6 6 5 5 7 8 8 9 9 6 7 8 7 7 6 5 5 5 5
4 3 2 3 3 4 4 4 4 3 3 4 5 5 5 8 12 11 10 5 4 5 5 5 6 7 6 5 5 6 7 7 9 7 7 8 8 7 8 8 7 5 2
3 2 2 2 2 3 4 4 3 3 4 4 4 5 5 8 12 12 11 4 5 6 6 6 6 7 11 10 6 7 8 9 10 11 12 11 12 12 9 5 5 4 4
1 0 1 1 2 2 3 3 2 2 3 4 5 5 5 6 11 13 12 4 5 6 6 6 9 10 12 12 7 7 9 10 8 7 8 9 9 10 11 9 8 7 4
1 1 2 2 2 2 2 2 3 3 4 5 5 5 6 7 10 12 12 5 5 7 7 7 7 13 15 14 12 9 12 11 8 7 7 7 6 6 7 8 8 8 7
2 1 2 3 3 2 2 3 3 3 4 5 5 6 5 6 8 11 14 12 11 7 7 7 8 15 16 16 12 13 16 12 6 6 7 7 7 7 7 7 8 9 9
2 0 2 2 3 2 2 3 3 3 3 4 4 5 6 6 7 13 14 15 14 9 8 12 14 16 15 12 14 16 13 7 6 7 8 9 8 8 6 4 5 5 5
2 1 1 2 3 3 2 2 2 3 4 4 5 6 6 6 6 6 7 8 10 10 8 12 15 14 11 11 12 10 7 7 8 9 8 8 6 5 6 6 5 5 4
2 2 2 2 2 3 3 3 4 4 5 5 5 5 5 6 8 12 10 8 8 8 10 7 6 6 7 7 7 7 6 6 8 8 8 7 6 7 7 6 5 5 6
3 3 3 3 3 3 4 5 7 7 10 11 10 9 7 10 14 15 15 15 16 15 10 6 7 7 8 8 8 8 7 7 7 7 7 8 8 8 8 6 6 7 7
5 4 3 3 3 3 3 4 6 8 9 10 11 12 12 14 15 15 15 15 14 12 7 7 7 8 8 8 8 8 8 8 7 8 8 8 8 8 8 9 8 8 8
5 5 5 4 4 4 5 5 5 6 7 7 8 12 14 14 15 15 15 12 9 7 6 7 8 8 8 8 9 8 8 8 7 8 8 8 8 8 9 9 10 10 9
5 4 4 4 5 5 5 5 5 6 6 7 7 8 11 12 12 13 11 6 7 8 8 8 8 8 8 8 9 9 9 9 8 8 8 8 8 7 9 9 9 11 10
5 7 6 4 4 5 5 5 5 6 7 7 7 8 7 7 6 7 6 6 7 8 8 9 9 9 8 9 9 8 9 9 9 8 8 8 8 8 9 10 9 9 10
5 6 7 5 4 5 5 6 6 6 7 7 8 9 11 8 8 9 8 8 8 8 9 9 9 9 9 8 9 9 10 9 9 8 8 8 8 8 8 8 9 8 9
5 5 5 5 6 6 6 6 7 7 8 9 9 9 13 8 7 8 8 9 8 8 8 9 9 9 8 9 9 10 10 10 10 9 9 9 8 9 8 8 8 8 8
5 6 6 6 6 8 8 7 7 8 8 9 9 9 8 7 8 9 9 9 8 8 8 8 9 9 9 9 9 10 11 11 10 10 9 9 9 8 8 8 9 9 9
6 7 7 6 6 7 7 8 8 8 9 9 9 9 9 9 9 10 10 9 9 9 9 9 10 13 15 12 10 10 11 11 11 10 11 11 10 9 9 9 9 10 10
6 7 7 7 7 7 8 8 8 9 9 9 9 9 9 9 9 10 9 9 10 10 11 11 10 11 14 16 15 13 15 17 16 12 10 10 11 11 10 10 9 9 8
7 7 7 7 7 7 8 8 9 9 9 9 9 9 9 10 10 10 9 9 10 10 11 10 11 14 16 14 15 17 18 18 17 15 11 9 10 10 10 9 10 10 9
Wind_Direction
95 88 75 62 52 50 33 355 339 337 339 336 323 317 303 290 286 289 286 297 300 299 302 286 279 269 274 281 264 221 204 186 229 275 273 277 257 250 257 245 237 229 233
95 90 84 67 54 45 17 348 346 343 337 329 332 334 325 310 295 286 294 302 291 289 292 290 283 279 265 261 251 249 238 214 209 250 273 274 250 237 231 234 232 231 235
87 82 70 54 43 27 3 350 353 354 354 351 351 342 330 322 307 289 274 284 287 282 282 275 276 274 270 264 250 246 247 246 215 225 255 259 258 247 229 247 237 240 234
84 76 63 41 29 10 359 356 352 356 0 353 352 340 328 321 316 303 294 291 294 294 285 276 274 263 258 260 260 250 245 248 239 230 246 255 255 257 203 222 242 243 240
86 77 62 38 31 21 10 357 353 358 359 350 353 350 344 338 341 336 310 300 290 300 303 294 282 276 271 261 259 250 244 245 244 236 243 247 243 231 225 217 221 236 250
88 76 52 40 31 16 1 358 359 353 350 359 358 352 350 350 345 346 350 314 293 291 298 302 300 290 289 279 273 258 234 234 240 236 238 237 239 227 219 213 206 206 244
93 77 55 45 31 4 0 6 355 343 348 349 344 345 337 330 343 347 346 341 309 297 292 298 308 309 299 289 289 284 266 253 239 236 236 239 237 227 210 212 210 209 223
87 66 44 40 20 2 5 357 342 338 341 339 338 336 334 340 347 343 335 331 313 305 294 284 283 288 294 286 283 287 280 273 257 245 245 249 244 235 215 212 212 213 234
86 64 33 35 18 4 354 339 336 345 343 337 336 337 337 333 344 345 343 324 310 303 301 303 299 291 296 299 285 278 282 283 273 255 253 256 253 244 221 198 191 190 224
130 107 351 6 7 344 329 325 329 336 329 331 331 327 325 322 335 344 344 329 314 307 304 300 301 304 305 303 289 274 276 279 279 277 270 265 261 251 229 211 201 199 201
170 78 14 350 332 317 325 324 327 336 338 334 325 319 316 312 324 332 335 332 312 305 304 301 299 308 307 301 294 274 269 277 272 261 263 263 260 251 239 225 211 204 204
123 62 356 338 338 360 351 337 338 341 335 327 325 322 315 313 317 323 327 323 318 303 296 293 294 305 307 303 296 285 284 284 272 263 262 260 255 250 242 234 222 217 215
121 31 327 335 337 338 337 331 333 334 326 317 316 313 313 314 318 325 327 324 318 308 295 296 299 300 302 299 292 290 289 277 265 260 256 255 249 245 236 233 235 218 219
163 249 288 311 315 320 316 306 307 308 309 308 308 305 304 307 308 311 313 316 316 313 304 303 304 298 290 286 294 293 281 267 263 257 254 254 255 246 235 221 223 215 214
194 234 259 267 277 293 293 276 275 265 263 280 281 279 292 302 298 303 311 312 309 302 308 305 306 308 306 302 295 287 281 278 270 261 255 256 257 250 243 223 213 212 218
203 232 241 252 266 272 285 301 291 282 292 293 286 283 280 280 295 306 309 309 309 309 311 303 302 301 297 296 297 296 287 277 273 272 264 254 249 249 247 231 216 214 220
205 223 235 244 253 263 270 280 298 307 304 301 296 294 289 292 298 303 304 307 307 309 301 292 293 294 294 294 290 289 287 281 277 273 269 263 255 249 245 234 222 221 221
211 226 229 235 244 253 259 265 270 284 300 302 298 295 294 292 295 299 302 309 309 308 287 287 289 290 290 292 291 288 288 285 279 277 273 267 258 251 247 241 226 221 220
212 224 231 237 243 251 259 267 272 275 279 286 294 299 295 294 293 294 300 293 292 296 293 288 286 287 289 289 288 288 286 283 278 275 273 269 262 257 253 246 235 223 218
221 237 240 239 247 257 262 267 272 275 279 282 284 287 294 298 296 296 292 283 282 284 288 289 287 284 285 286 286 284 285 284 280 275 272 269 264 255 252 249 239 228 223
220 241 254 254 247 252 258 263 266 270 274 278 279 279 282 285 282 284 286 284 280 282 284 287 286 285 284 284 284 282 282 282 279 275 274 271 266 260 251 246 243 235 227
218 230 234 240 248 255 261 262 264 268 272 277 281 284 287 279 276 279 282 282 278 275 277 282 287 283 280 281 282 282 282 280 279 275 274 272 267 264 255 245 239 234 226
219 229 239 247 252 262 268 267 266 269 272 275 277 281 282 277 277 279 281 282 280 280 280 281 284 285 283 280 277 275 276 277 274 271 272 273 268 264 259 248 238 231 227
220 229 240 251 256 258 263 268 269 269 271 274 275 275 275 275 277 279 281 282 282 284 284 284 284 284 284 285 282 278 273 272 273 267 264 267 266 262 256 250 243 230 220
225 234 241 248 255 260 264 268 270 271 273 274 275 276 276 276 278 280 281 280 283 285 285 286 287 286 284 284 284 283 277 274 273 267 262 259 257 254 249 245 239 231 219
232 238 244 249 254 258 262 268 271 272 273 275 275 274 275 277 278 280 281 282 284 285 286 287 287 288 289 289 286 284 284 282 274 264 258 256 254 251 245 240 230 222 211
Height
1542 1542 1541 1541 1540 1540 1539 1538 1537 1536 1535 1534 1533 1532 1531 1530 1528 1527 1526 1525 1524 1523 1522 1521 1520 1519 1518 1517 1516 1515 1515 1514 1512 1512 1511 1511 1511 1511 1511 1511 1512 1512 1513
1541 1541 1541 1540 1539 1538 1537 1536 1535 1534 1533 1532 1531 1530 1529 1528 1527 1526 1525 1524 1523 1522 1521 1520 1519 1518 1516 1515 1514 1513 1513 1512 1511 1509 1509 1509 1509 1509 1509 1509 1509 1509 1510
1540 1540 1540 1539 1538 1537 1536 1535 1534 1533 1532 1531 1530 1528 1527 1526 1525 1524 1523 1522 1521 1520 1519 1518 1517 1516 1514 1513 1512 1511 1510 1509 1508 1507 1506 1506 1506 1506 1506 1506 1507 1507 1507
1539 1539 1538 1538 1537 1536 1535 1534 1533 1531 1530 1529 1528 1527 1525 1524 1523 1522 1521 1520 1519 1518 1517 1515 1514 1513 1512 1510 1509 1508 1507 1506 1505 1504 1504 1503 1503 1503 1503 1503 1503 1504 1504
1538 1538 1537 1537 1536 1535 1533 1532 1531 1530 1529 1527 1526 1525 1523 1522 1521 1519 1518 1517 1516 1515 1514 1513 1511 1510 1509 1508 1506 1505 1504 1503 1502 1501 1500 1500 1499 1499 1499 1500 1500 1500 1501
1538 1537 1537 1536 1534 1533 1532 1531 1530 1528 1527 1525 1524 1522 1521 1520 1518 1517 1515 1514 1513 1511 1510 1509 1508 1507 1505 1504 1503 1501 1500 1499 1498 1497 1496 1496 1495 1495 1496 1496 1496 1497 1497
1536 1536 1535 1534 1533 1532 1531 1529 1528 1526 1525 1523 1522 1520 1518 1517 1515 1513 1512 1511 1509 1508 1506 1505 1504 1502 1501 1499 1498 1497 1496 1495 1494 1493 1492 1491 1491 1491 1492 1491 1491 1492 1492
1535 1534 1534 1533 1531 1530 1529 1528 1526 1524 1523 1521 1519 1518 1516 1514 1512 1510 1508 1506 1505 1503 1502 1500 1499 1497 1496 1495 1493 1491 1490 1489 1488 1487 1486 1486 1486 1486 1487 1487 1487 1488 1488
1533 1533 1532 1531 1529 1528 1527 1525 1524 1522 1520 1519 1517 1515 1513 1511 1509 1506 1504 1502 1500 1499 1497 1496 1494 1492 1491 1489 1487 1485 1483 1482 1482 1481 1480 1480 1480 1480 1481 1482 1482 1482 1482
1531 1531 1530 1529 1527 1526 1525 1523 1522 1520 1518 1516 1514 1512 1510 1508 1505 1503 1501 1498 1495 1493 1492 1490 1489 1487 1485 1483 1481 1479 1477 1475 1475 1473 1473 1473 1473 1473 1474 1475 1475 1476 1476
1529 1528 1528 1527 1525 1524 1522 1521 1519 1517 1515 1513 1511 1509 1507 1505 1502 1500 1497 1494 1492 1489 1486 1484 1483 1481 1478 1477 1475 1473 1471 1469 1468 1467 1465 1465 1465 1466 1466 1468 1469 1470 1470
1527 1526 1525 1524 1523 1521 1520 1518 1516 1514 1512 1510 1507 1505 1503 1501 1498 1496 1493 1491 1488 1484 1481 1479 1477 1474 1472 1470 1467 1465 1464 1462 1461 1459 1458 1457 1457 1458 1459 1460 1461 1462 1464
1524 1523 1523 1522 1520 1519 1517 1515 1513 1511 1509 1506 1504 1501 1499 1497 1494 1492 1489 1486 1482 1479 1476 1473 1471 1468 1465 1462 1460 1458 1456 1454 1452 1451 1449 1449 1449 1450 1451 1452 1453 1454 1456
1521 1520 1520 1519 1517 1516 1514 1512 1510 1508 1505 1503 1500 1497 1495 1492 1490 1487 1483 1480 1477 1473 1470 1467 1464 1461 1458 1455 1452 1450 1448 1446 1445 1443 1442 1442 1442 1442 1443 1444 1445 1446 1447
1518 1517 1516 1515 1514 1512 1511 1509 1507 1505 1503 1500 1497 1494 1491 1487 1485 1482 1479 1475 1471 1468 1464 1460 1457 1453 1450 1447 1444 1442 1440 1438 1437 1436 1434 1433 1433 1433 1434 1435 1437 1438 1439
1514 1513 1513 1511 1510 1508 1507 1505 1503 1501 1499 1496 1493 1491 1487 1484 1481 1477 1474 1470 1466 1462 1459 1454 1451 1447 1444 1440 1437 1434 1432 1430 1429 1427 1426 1425 1425 1424 1425 1426 1428 1429 1431
1510 1509 1508 1507 1506 1504 1502 1500 1497 1495 1494 1491 1488 1486 1483 1479 1475 1472 1468 1464 1460 1457 1453 1449 1445 1441 1438 1434 1431 1428 1425 1423 1421 1419 1418 1417 1417 1416 1416 1417 1419 1421 1422
1505 1505 1504 1502 1501 1499 1497 1495 1492 1489 1487 1484 1482 1480 1477 1473 1470 1466 1462 1458 1453 1450 1447 1443 1439 1435 1431 1428 1424 1421 1418 1415 1413 1412 1410 1409 1408 1408 1407 1408 1409 1411 1413
1500 1500 1499 1497 1496 1494 1492 1490 1487 1485 1482 1478 1475 1473 1470 1467 1463 1460 1456 1452 1447 1443 1440 1436 1433 1429 1425 1421 1417 1414 1411 1408 1405 1403 1402 1401 1400 1399 1399 1399 1400 1402 1404
1495 1494 1493 1492 1490 1488 1486 1484 1481 1479 1476 1472 1469 1466 1463 1459 1455 1452 1449 1445 1441 1437 1433 1429 1425 1421 1417 1413 1410 1406 1403 1400 1397 1395 1393 1392 1391 1391 1391 1391 1391 1393 1395
1490 1489 1488 1486 1484 1482 1480 1478 1475 1472 1469 1466 1463 1460 1457 1453 1449 1445 1442 1438 1434 1430 1426 1421 1417 1413 1409 1405 1402 1398 1395 1392 1389 1386 1385 1383 1382 1382 1382 1383 1383 1384 1387
1484 1483 1481 1480 1478 1476 1474 1471 1469 1466 1463 1459 1456 1453 1450 1446 1442 1438 1434 1430 1426 1422 1418 1414 1409 1405 1401 1397 1393 1390 1386 1383 1381 1378 1376 1375 1374 1374 1373 1374 1375 1376 1377
1477 1476 1474 1473 1471 1469 1467 1464 1461 1459 1456 1452 1449 1445 1442 1438 1434 1430 1426 1422 1418 1414 1410 1405 1400 1395 1392 1389 1385 1382 1378 1375 1372 1370 1368 1366 1366 1365 1365 1365 1366 1367 1369
1470 1469 1467 1466 1464 1462 1459 1456 1454 1451 1448 1445 1441 1437 1434 1430 1426 1422 1418 1413 1409 1405 1400 1396 1391 1387 1383 1379 1375 1372 1369 1366 1364 1362 1360 1358 1357 1357 1357 1357 1358 1359 1360
1463 1462 1460 1458 1456 1454 1451 1449 1446 1443 1440 1437 1433 1429 1425 1422 1417 1413 1409 1405 1400 1395 1391 1387 1382 1378 1373 1369 1365 1362 1359 1357 1355 1353 1351 1350 1349 1349 1349 1349 1350 1351 1353
1456 1454 1453 1451 1449 1446 1444 1441 1438 1435 1432 1428 1425 1421 1417 1413 1408 1404 1400 1395 1391 1386 1382 1377 1373 1368 1364 1360 1356 1352 1349 1346 1344 1343 1342 1341 1340 1340 1340 1341 1342 1343 1345